User: anonymous   Login
Location: Brede
(50.9167°N, 0.6000°E)
Time: 19:54:02
(UTC+00:00)
Language:

A-11 Canister half - Orbit

View from above orbital plane
View from above orbital plane
View from above satellite
View from above satellite

Ground track
Ground track

The orbit data is extracted from the following two-line orbital elements,

1 00053U 60009E   21169.49568943 -.00000013  00000-0  71875-3 0  9996
2 00053  47.2735 210.1674 0096488  83.3261 277.8498 12.17254704713152
Epoch (UTC): 18 June 2021 11:53:47
Eccentricity: 0.0096488
inclination: 47.2735°
perigee height: 1527 km
apogee height: 1681 km
right ascension of ascending node: 210.1674°
argument of perigee: 83.3261°
revolutions per day: 12.17254704
mean anomaly at epoch: 277.8498°
orbit number at epoch: 71315

The dashed part of the orbit path shows where the satellite is in the earth's shadow,  

DLR